FLOCK 4BE 7

导读

FLOCK 4BE 7是美国Planet公司Flock 4be批次鸽群遥感星座中的一员,于2024年8月16日发射入轨,运行在倾角97.5°、高度515km的太阳同步轨道。作为3U立方体卫星,它延续SuperDove技术配置,具备3米分辨率成像能力,携带多光谱传感器,可服务全球对地观测、生态监测等需求,是Planet每日全球重访星座的重要补充。

基本信息
目录编号:
60481
目录名称:
FLOCK 4BE 7
国际标识:
2024-149P
轨道中心:
EARTH
卫星名称:
FLOCK 4BE 7
卫星全名:
FLOCK 4BE 7
卫星状态:
在轨 (已飞行664 天)
发射日期:
2024-08-16 UTC
国别 :
美国 (US)
星等 :
--
轨道信息
数据来源 国际轨道数据
星历时间: 2026-06-11T12:13:34+0800
15小时前
查看轨道信息
半长轴: 6824.041km
偏心率: 0.0001628
轨道倾角: 97.376°
近地点辐角 271.622°
升交点赤经 245.195°
平近点角 88.484°
近地点: 444.793km
远地点: 447.015km
周期: 93.502分钟
每日圈数: 15.400697
详细信息
使用方式:
暂无
2D轨道图
3D轨道图
轨道高度分析图
轨道倾角分析图
轨道综合分析图
查看轨道综合分析图